sat.trackr.live / text

‹ back to catalog

STARLINK-36769

NORAD 67871 · 2026-034X

PAYLOAD ACTIVE UNKNOWN

§ Identity

Operator
Country
US
Launch date
2026-02-20
Launch site
AFETR
Launch vehicle
Mass (kg)
RCS (m²)

Purposes: comms

External: N2YO · Heavens-Above · Gunter

§ Orbital elements

Epoch: 2026-05-25T05:06:08.678016Z

Period
94.10 min
Inclination
53.1576°
Eccentricity
0.0001075
Mean motion
15.30209728 rev/d
Perigee alt
474.4 km
Apogee alt
475.9 km
Semi-major
6,853.3 km
B*
3.8505e-4
RAAN
208.6571°
Arg perigee
94.7335°
Mean anomaly
265.3789°
Rev number
1,575

§ Raw data

STARLINK-367691 67871U 26034X   26145.21260044  .00011065  00000+0  38505-3 0  99972 67871  53.1576 208.6571 0001075  94.7335 265.3789 15.30209728 15756

JSON: /api/v1/satellites/67871 · /tle

For live sub-satellite position, see the globe view (requires WebGL).

§ Visibility from observer

Set your observer location to see the next 7 days of passes ≥ 10°. The values pass through the URL so the page stays shareable.

No JS? Fill the form by hand. The geolocation button needs JavaScript.